Lid_Strength_Index
-1 -1 -1 -1 -1 -1 -1 -1 -1 -1 -1 -1 -1 -1 -1 -1 -2 -1 -1 -1 -1 -1 -2 -2 -2 -2 -2 -2 -2 -2 -2 -2 -2 -2 -2 -2 -2 -2 -1 -2 -1 -1 -1
-1 -1 -1 -1 -1 -2 -1 -1 -1 -1 -1 -1 -1 -1 -1 -1 -1 -1 -2 -1 -1 -1 -1 -2 -2 -2 -2 -2 -2 -2 -1 -2 -2 -2 -2 -2 -2 -1 -1 -1 -1 -1 -1
-2 -1 -1 -0 -1 -2 -2 -1 -1 -1 -1 -1 -1 -1 -1 -1 -1 -1 -2 -1 -1 -1 -1 -1 -2 -2 -2 -2 -2 -2 -1 -2 -2 -2 -2 -2 -2 -1 -1 -1 -1 -0 -0
-2 -1 -1 -1 -2 -2 -1 -1 -0 -0 -0 -0 -0 -0 -1 -1 -1 -1 -2 -2 -2 -1 -1 -2 -2 -2 -2 -2 -2 -2 -1 -2 -2 -2 -2 -1 -1 -1 -1 -1 0 0 1
-2 -1 -1 -1 -2 -1 -1 -1 -0 -0 0 0 0 -0 -0 -1 -1 -1 -0 -1 -1 -1 -1 -1 -1 -1 -2 -2 -2 -2 -2 -2 -2 -2 -1 -1 -1 -1 -0 0 1 1 1
-1 -1 -1 -1 -1 -1 -1 -1 -0 -0 -0 0 1 0 -0 -1 -1 -0 -0 -1 -1 -1 -1 -1 -1 -2 -1 -2 -2 -2 -2 -2 -2 -1 -1 -1 -1 -0 0 1 1 1 1
-1 -1 -1 -1 -1 -0 -1 -1 -0 0 0 -0 1 2 1 -0 0 -0 -1 -0 -1 -1 -1 -1 -1 -1 -1 -1 -1 -2 -2 -1 -1 -1 -1 -1 -1 0 1 1 1 1 1
-1 -1 -1 -0 -1 -0 -0 -0 -0 1 0 -0 3 3 5 3 1 0 -0 0 -0 -0 -0 -1 -1 -1 -1 -1 -2 -2 -2 -2 -1 -0 -0 -1 0 1 1 1 1 2 2
-1 -1 -1 -1 -1 -1 0 -0 -0 0 2 1 1 3 6 7 4 1 1 1 0 0 -0 -0 -1 -1 -1 -1 -2 -2 -2 -1 -1 -0 -0 0 1 1 1 1 1 1 1
-0 -1 -1 -1 -1 -0 -0 -0 -1 -0 1 2 1 1 0 2 5 6 2 1 0 1 0 -0 -0 -1 -1 -1 -2 -2 -1 -1 -1 -0 0 1 1 1 1 1 1 -0 -0
-1 -1 -1 -1 -1 -1 -1 -0 -0 -0 0 2 2 2 1 2 2 4 6 4 3 1 -0 -0 -0 -1 -1 -1 -2 -1 -1 -1 -0 -1 -1 -0 1 1 0 -1 -1 -1 -1
-0 -0 -0 -0 -1 -1 -0 -0 -1 -0 0 0 1 1 2 3 3 3 4 4 4 4 1 -0 -0 -1 -2 -2 -2 -1 -0 0 1 0 -0 -0 -0 -2 -1 -1 -1 -1 -0
0 0 -0 -0 -0 -1 -1 -1 -0 -0 0 1 1 1 1 1 1 2 4 4 5 4 3 1 -1 -1 -1 -2 -2 -1 -0 1 2 2 1 1 -1 -2 -2 -1 -0 -0 -0
1 -0 0 -1 -1 -1 -1 -1 -0 -0 -0 0 1 1 1 1 1 1 3 5 6 5 3 2 0 -0 -2 -2 -1 -0 -0 1 2 1 0 -0 -1 -1 -1 -1 -1 -0 1
0 -0 -0 0 -1 -0 -0 -1 -0 0 0 0 1 1 1 2 1 2 2 2 3 5 4 2 2 -0 -1 -1 -1 -1 -1 0 0 1 1 1 0 0 -0 -0 1 1 2
0 0 -0 -0 -0 -1 -1 -0 0 -0 0 0 0 0 1 1 2 2 3 3 2 2 4 2 2 0 -1 0 0 -1 -2 -0 0 1 1 1 1 1 1 1 2 2 3
-1 0 1 0 0 -0 -0 -0 -0 0 1 1 0 1 1 0 2 2 2 2 1 1 3 2 1 -0 0 1 -0 -2 -2 -1 -0 1 2 2 2 2 2 2 3 3 4
-0 -0 0 0 0 0 -0 0 0 0 1 1 1 1 1 0 0 0 0 1 -0 -0 1 2 1 0 -0 -2 -2 -2 -2 -2 -2 2 2 3 3 3 3 4 4 4 5
-0 -0 -0 0 1 1 1 0 0 0 0 0 0 0 1 0 0 0 -0 0 1 1 0 2 1 -0 -0 -1 -1 -1 -1 -2 -1 3 3 4 4 4 5 5 5 5 6
-0 -0 -0 -0 0 0 0 0 0 0 0 0 -0 -0 -0 -0 0 -0 -0 -0 0 0 0 1 1 1 0 -1 -1 0 0 -0 1 3 4 5 4 4 5 5 5 6 7
-0 0 -0 -0 -1 -0 0 -0 -0 -0 -0 -0 -0 -0 -1 1 3 1 -0 -1 -1 0 1 1 1 1 1 1 1 0 1 -0 0 1 3 3 4 4 5 5 5 6 7
-0 0 0 -0 -0 0 7 5 1 -0 -0 -0 0 -0 -1 1 2 4 4 5 0 -1 -0 1 1 1 0 0 0 0 1 1 2 -0 1 2 3 4 4 5 6 7 7
-1 -1 -1 -1 -0 -1 7 6 4 -1 -0 -0 -0 -0 -0 -0 -0 -1 5 5 5 5 4 -1 0 0 0 -0 -1 0 0 1 1 -0 1 2 2 4 4 5 7 8 8
-0 -0 -0 -1 -1 1 8 7 4 -1 -1 -1 -1 -1 -1 -1 -1 -0 -0 -0 -0 -1 -1 -1 -1 -1 -1 -1 -1 -1 -0 -0 -0 -1 0 4 2 4 4 4 8 8 8
-0 -0 -0 -0 -0 -0 8 9 4 -1 -0 -1 -0 -0 -0 -0 8 7 0 -0 -0 -0 9 8 8 9 10 9 5 -1 1 2 3 2 1 4 4 4 4 4 5 8 9
-0 -0 -0 -1 1 -1 9 9 6 2 1 2 2 2 8 4 10 9 -0 -0 0 -0 1 2 1 5 8 5 10 3 3 4 4 4 2 4 5 5 6 4 4 5 7